Welcome to the New NWS' Forecast!
Most changes are behind the scenes, but click here for differences you might notice.
Latest weather observations around

Jonesboro, Jonesboro Municipal Airport (KJBR)

Using English Units (Switch to International System of Units)
Date/ Time (CDT) Wind (mph) Vis. (mi) Weather Sky Cond. Temp (°F) Rel. Humidity Wind Chill (°F) Heat Index (°F) Pressure Precip. (in)
Air Dwpt 6 hour Altimeter (inHg) Sea level (inHg) 1 hr 3 hr 6 hr
Max Min
Oct 20 08:53 E 6 8 Clear CLR 55 54     96%     30.24 30.24      
Oct 20 07:53 ENE 3 4 Fog/Mist CLR 49 49     100% 48   30.23 30.23      
Oct 20 07:43 NE 3 3 Fog/Mist CLR 47 47     100% 46   30.23        
Oct 20 07:23 NE 3 2.5 Fog/Mist CLR 47 47     100% 46   30.22        
Oct 20 07:15 NE 3 1.25 Fog/Mist CLR 47 47     100% 46   30.22        
Oct 20 07:09 NE 3 0.5 Fog CLR 46 46     100% 45   30.22        
Oct 20 06:53 Calm 0.5 Fog VV002 45 45     100%     30.22 30.22      
Oct 20 06:27 Calm 0.5 Fog VV003 45 45     100%     30.22        
Oct 20 06:24 Calm 1.25 Fog/Mist CLR 45 45     100%     30.22        
Oct 20 06:17 Calm 2 Fog/Mist CLR 46 46     100%     30.22        
Oct 20 06:08 Calm 1 Fog/Mist CLR 47 46     97%     30.22        
Oct 20 05:58 Calm 0.5 Fog CLR 46 46     100%     30.22        
Oct 20 05:53 Calm 1.75 Fog/Mist CLR 46 46     100%     30.22 30.21      
Oct 20 05:50 Calm 2.5 Fog/Mist CLR 46 46     100%     30.22        
Oct 20 04:53 ENE 5 4 Fog/Mist CLR 47 47     100% 45   30.2 30.2      
Oct 20 04:41 Calm 3 Fog/Mist CLR 46 46     100%     30.21        
Oct 20 04:34 Calm 2.5 Fog/Mist CLR 47 47     100%     30.21        
Oct 20 03:53 Calm 5 Fog/Mist CLR 48 48     100%     30.2 30.19      
Oct 20 02:53 Calm 7 Clear CLR 50 48     93%     30.2 30.19      
Oct 20 01:53 Calm 7 Clear CLR 50 49     96%     30.2 30.19      
Oct 20 00:53 Calm 7 Clear CLR 50 49     96%     30.2 30.19      
Oct 19 23:53 Calm 9 Clear CLR 51 49     92%     30.2 30.19      
Oct 19 22:53 Calm 10 Clear CLR 56 50     80%     30.21 30.2      
Oct 19 21:53 Calm 10 Clear CLR 57 51     81%     30.2 30.19      
Oct 19 20:53 Calm 10 Clear   60 51     72%     30.19 30.19      
Oct 19 19:53 Calm 10 Clear CLR 63 51     65%     30.18 30.18      
Oct 19 18:53 S 5 10 Clear CLR 67 50     55%     30.18 30.17      
Oct 19 17:53 SSE 5 10 Clear CLR 74 52     46%   73 30.17 30.16      
Oct 19 16:53 S 8 10 Clear CLR 79 52     39%   78 30.17 30.16      
Oct 19 15:53 S 7 10 Clear CLR 79 52     39%   78 30.17 30.16      
Oct 19 14:53 3 10 Clear CLR 79 53     41%   78 30.18 30.17      
Oct 19 12:53 SW 8 10 Clear CLR 76 55     48%   75 30.23 30.22      
Oct 19 11:53 SW 9 10 Clear CLR 73 54     51%   72 30.25 30.25      
Oct 19 10:53 SW 11 10 Clear CLR 70 54     57%     30.26 30.26      
Oct 19 09:53 SSW 3 10 Clear CLR 62 52     70%     30.27 30.26      
Oct 19 08:53 S 3 10 Clear   55 51     86%     30.26 30.26      
Oct 19 07:53 NE 3 9 Clear CLR 48 47     96% 47   30.24 30.23      
Oct 19 06:53 Calm 8 Clear CLR 49 47     93%     30.22 30.22      
Oct 19 05:53 Calm 8 Clear CLR 49 48     97%     30.21 30.21      
Oct 19 04:53 Calm 8 Clear CLR 50 48     93%     30.2 30.19      
Oct 19 03:53 Calm 6 Fog/Mist CLR 50 47     89%     30.19 30.18      
Oct 19 02:53 SSE 3 7 Clear CLR 53 48     83%     30.18 30.17      
Oct 19 01:53 S 6 10 Clear CLR 53 48     83%     30.17 30.16      
Oct 19 00:53 SSW 7 10 Clear CLR 54 49     83%     30.17 30.16      
Oct 18 23:53 SSW 5 10 Clear CLR 55 48     77%     30.17 30.17      
Oct 18 22:53 Calm 9 Clear CLR 54 48     80%     30.18 30.17      
Oct 18 21:53 Calm 10 Clear CLR 57 48     72%     30.18 30.18      
Oct 18 20:53 S 3 10 Clear CLR 60 48     64%     30.18 30.17      
Oct 18 19:53 SSE 8 10 Clear CLR 60 48     64%     30.17 30.17      
Oct 18 18:53 S 6 10 Clear   65 50     58%     30.17 30.16      
Oct 18 17:53 S 8 10 Clear CLR 72 51     48%   71 30.16 30.16      
Oct 18 16:53 S 9 10 Clear CLR 75 52     45%   74 30.15 30.14      
Oct 18 15:53 SSW 9 8 Clear CLR 76 50     40%   75 30.15 30.15      
Oct 18 14:53 S 10 10 Clear CLR 76 51     42%   75 30.16 30.15      
Oct 18 13:53 S 10 10 Clear CLR 74 50     43%   73 30.18 30.17      
Oct 18 12:53 SW 10 10 Clear CLR 73 50     44%   72 30.22 30.21      
Oct 18 11:53 S 11 10 Clear CLR 71 51     49%   70 30.25 30.24      
Oct 18 10:53 5 10 Clear CLR 66 52     61%     30.27 30.27      
Oct 18 09:53 SSE 7 10 Clear CLR 59 52     78%     30.27 30.27      
Oct 18 08:53 Calm 10 Clear CLR 52 50     93%     30.25 30.25      
Oct 18 07:53 Calm 10 Clear CLR 46 45     96%     30.24 30.24      
Oct 18 06:53 Calm 10 Clear CLR 43 43     100%     30.23 30.23      
Oct 18 05:53 Calm 9 Clear CLR 43 43     100%     30.23 30.22      
Oct 18 04:53 Calm 10 Clear CLR 45 44     97%     30.22 30.22      
Oct 18 03:53 Calm 10 Clear CLR 44 44     100%     30.22 30.21      
Oct 18 02:53 Calm 10 Clear CLR 45 45     100%     30.22 30.22      
Oct 18 01:53 Calm 10 Clear CLR 46 45     96%     30.22 30.22      
Oct 18 00:53 Calm 10 Clear CLR 46 45     96%     30.22 30.22      
Oct 17 23:53 Calm 10 Clear CLR 47 44     90%     30.23 30.22      
Oct 17 22:53 Calm 7 Clear CLR 47 44     90%     30.23 30.22      
Oct 17 21:53     Clear   50 44     80%     30.23 30.23      
Oct 17 20:53 Calm 10 Clear CLR 51 45     79%     30.23 30.22      
Oct 17 19:53 ENE 3 10 Clear CLR 54 45     72%     30.22 30.22      
Oct 17 18:53 Calm 10 Clear CLR 58 44     60%     30.21 30.21      
Oct 17 17:53 SSE 5 10 Clear CLR 68 42     39%     30.21 30.21      
Oct 17 16:53 S 5 10 Clear CLR 70 39     32%     30.22 30.21      
Oct 17 15:53 E 3 10 Clear CLR 71 42     35%   70 30.23 30.23      
Oct 17 15:46 ESE 5 8 Mostly Clear FEW002 70 41     35%     30.23        
Oct 17 14:53 ESE 3 10 Clear CLR 69 42     38%     30.25 30.24      
Oct 17 13:53 Calm 10 Clear CLR 69 44     40%     30.27 30.27      
Oct 17 12:53 Calm 10 Clear CLR 65 43     45%     30.31 30.31      
Oct 17 11:53 ESE 8 10 Clear CLR 64 43     46%     30.34 30.34      
Oct 17 10:53 E 8 10 Clear CLR 63 46     54%     30.37 30.37      
Oct 17 09:53 ESE 7 10 Clear CLR 57 46     67%     30.38 30.38      
Oct 17 08:53 NE 3 10 Clear CLR 53 45     74%     30.38 30.37      
Jun 10 21:53 S 6 10 Clear CLR 75 62     64%   75 29.97 29.96      
Jun 10 11:53 SW 10 10 Partly Cloudy SCT050 83 59     44%   83 30.01 30.01      
Jun 09 23:53 Calm 10 Clear CLR 62 58     86%     29.95 29.94      
Jun 08 22:53 Calm 10 Clear CLR 63 56     78%     29.93 29.92      
Jun 08 06:53 NNE 6 10 Clear CLR 64 55     73%     30.01 30      
Jun 06 11:53 E 7 10 Mostly Clear FEW003 82 68     63%   85 29.84 29.83      
Jun 06 01:53 Calm 4 Fog/Mist CLR 69 67     93%     29.8 29.79